RH
83 78 73 70 65 60 61 54 65 36 37 15 12 23 33 37 34 36 37 34 37 66 71 86 93 100 100 99 99 100 100 100 100 100 100 100 100 100 100 99 96 60 52 57
95 93 81 72 60 56 38 43 48 33 24 16 21 25 34 39 30 31 34 37 33 70 72 80 94 97 99 100 97 100 99 100 100 100 100 99 99 97 97 84 58 63 58 57
82 84 88 91 46 23 17 17 20 33 17 25 27 33 34 39 41 30 30 34 31 57 80 86 95 95 96 99 100 99 99 99 100 99 99 99 98 96 84 71 65 60 61 60
61 82 86 49 50 54 52 31 44 47 46 44 41 27 24 30 37 39 33 30 30 45 56 62 69 96 96 100 99 100 99 100 99 99 98 92 84 78 72 66 65 66 62 72
82 72 58 44 41 44 48 31 51 48 41 43 44 34 30 35 37 36 44 31 39 51 56 60 95 100 100 98 92 100 99 100 100 94 83 82 78 69 70 72 69 72 76 78
96 87 81 58 55 62 62 65 72 65 60 47 35 42 33 40 43 40 38 38 34 50 56 70 98 99 100 97 99 84 100 97 90 84 80 74 70 75 74 74 80 82 83 75
97 96 88 74 59 58 76 86 66 90 82 72 55 57 44 46 47 45 43 36 34 38 62 92 99 99 99 100 99 97 88 88 94 88 73 72 75 75 79 85 89 86 72 46
84 81 74 62 83 96 95 95 88 86 93 79 61 55 54 49 53 48 47 41 39 44 52 96 100 100 96 97 99 98 96 85 82 73 73 76 79 85 95 94 88 70 44 25
86 79 74 91 89 83 93 88 92 92 84 82 67 59 62 49 54 53 52 52 52 55 63 78 100 100 99 96 88 79 81 81 73 70 77 91 96 96 95 87 71 42 22 11
82 60 49 34 41 82 71 80 82 93 93 93 85 72 74 59 52 56 51 59 62 63 67 74 79 83 89 82 80 84 84 80 86 96 97 97 96 95 89 73 39 17 7 5
80 42 34 32 41 34 54 79 81 87 92 95 97 85 86 82 57 66 60 57 78 73 71 78 79 82 92 94 95 93 91 95 97 97 96 97 95 92 78 39 13 6 6 7
54 28 47 38 35 37 48 60 66 61 80 96 96 92 94 96 70 81 70 65 77 92 83 83 89 87 92 96 96 96 97 97 96 96 96 94 90 81 33 10 6 6 8 8
77 68 66 57 47 40 48 44 45 50 55 66 87 95 92 97 96 91 73 82 86 89 92 90 90 90 91 93 94 97 96 95 95 95 94 90 82 26 8 6 7 9 10 12
98 98 91 69 64 62 67 39 43 50 47 49 95 82 84 97 94 79 76 96 94 89 94 99 100 100 97 96 96 97 95 96 96 94 93 76 20 6 6 10 12 13 16 19
98 97 94 88 95 83 87 76 51 44 43 50 84 95 100 97 97 85 89 99 98 90 91 97 100 100 100 99 97 97 96 96 96 96 72 14 6 7 11 13 15 17 20 23
83 81 72 84 78 81 84 73 69 63 55 46 87 96 98 99 95 96 97 97 97 89 88 96 97 97 97 98 98 98 98 98 93 34 9 6 7 11 14 16 18 21 24 27
93 75 84 88 82 70 79 74 77 69 50 47 79 93 97 99 96 98 99 96 97 97 97 97 97 97 97 98 98 98 96 58 14 7 6 8 12 15 18 20 23 25 25 26
95 94 87 83 90 83 66 67 60 61 43 38 76 96 96 98 97 98 98 97 96 97 98 98 97 97 97 98 96 95 44 12 7 7 9 12 17 19 21 23 24 25 28 31
64 64 64 74 80 92 82 76 62 62 50 45 93 92 96 97 97 97 97 97 97 96 96 96 96 97 97 96 93 47 11 11 8 10 13 18 20 23 25 26 26 32 35 38
70 63 56 60 71 81 85 82 66 69 63 83 97 95 97 96 96 97 97 97 96 96 97 96 96 95 88 52 43 37 10 9 11 14 18 23 26 26 25 28 39 42 44 44
96 79 64 58 78 84 86 84 78 81 78 100 91 96 96 97 97 96 97 96 96 96 96 95 95 94 66 26 17 11 9 13 14 16 20 24 27 29 35 45 46 46 47 48
96 95 78 71 80 84 95 90 78 81 95 100 94 95 97 97 96 96 95 96 96 95 96 92 82 38 16 9 10 11 13 16 20 25 32 37 40 45 50 51 51 52 53 46
96 96 98 99 97 90 91 90 78 83 100 88 96 97 98 97 97 97 96 96 96 92 48 22 12 9 10 11 11 14 17 20 23 30 40 46 52 55 55 55 57 58 46 39
97 96 97 97 97 97 94 85 93 92 93 94 97 96 97 96 95 95 95 86 68 52 35 12 9 10 11 12 13 15 20 24 27 33 44 54 60 60 61 62 60 45 42 50
97 98 98 98 98 97 100 100 99 96 97 96 96 97 97 97 95 91 74 42 22 14 10 11 13 15 17 18 20 23 28 32 37 47 60 66 67 67 65 54 45 49 56 61
97 97 98 98 98 98 98 98 96 96 98 95 92 81 65 47 37 27 18 14 14 16 18 19 20 22 25 27 29 31 35 47 61 68 68 68 67 56 49 53 60 64 68 71
87 91 95 97 96 95 94 92 92 93 89 73 44 32 24 21 18 20 22 23 23 22 22 24 29 31 33 35 40 53 67 70 69 66 60 52 54 61 66 69 73 76 77 78
Wind_Speed
30 30 34 38 39 34 37 43 33 48 49 48 39 35 33 31 30 24 17 18 17 20 18 16 15 18 20 29 33 37 34 31 33 31 40 45 42 35 29 22 17 21 18 19
37 33 34 43 45 44 49 47 50 52 53 41 38 38 28 24 29 14 12 18 17 22 20 18 17 13 5 26 28 27 37 37 39 35 37 35 29 22 19 16 20 17 19 19
43 28 26 32 39 35 39 34 40 40 43 43 38 30 26 23 22 21 13 17 17 23 22 21 21 19 15 13 17 20 25 27 27 26 25 25 21 15 15 16 17 17 17 18
38 25 18 31 12 15 25 28 28 33 30 32 35 37 29 26 20 22 20 18 18 22 23 22 21 17 19 21 25 21 23 21 18 18 19 14 14 17 17 16 15 15 17 21
20 21 32 42 30 26 25 37 25 34 36 28 31 28 19 19 19 18 18 18 17 20 22 22 19 19 21 22 22 23 21 18 14 15 17 17 18 16 14 13 15 17 21 24
24 14 7 9 10 3 19 24 14 13 17 21 26 25 16 15 12 18 19 16 18 21 23 24 25 26 25 24 23 23 22 18 18 16 18 18 16 14 14 15 18 22 25 27
28 25 25 34 34 30 25 22 31 29 28 27 28 26 17 10 8 15 15 16 18 17 18 23 25 27 24 22 23 20 19 18 18 21 20 17 16 15 16 20 23 25 26 27
17 14 20 31 26 15 19 25 30 34 27 28 25 25 18 10 9 16 17 16 18 17 14 18 22 22 21 21 23 22 20 22 22 19 17 16 16 18 21 23 25 25 26 28
29 38 36 27 55 42 36 45 35 24 27 26 26 23 18 16 12 12 18 18 18 19 19 21 22 22 21 22 22 23 25 23 21 20 20 21 21 21 23 25 26 26 27 29
41 43 42 50 55 45 43 48 40 35 23 21 24 23 18 16 15 10 18 21 19 21 22 22 23 23 23 23 24 24 24 24 25 25 21 22 22 24 25 25 26 27 29 30
52 57 52 50 48 49 37 33 37 36 27 25 24 24 20 19 15 9 12 21 22 22 21 23 24 25 25 26 26 27 28 28 26 22 22 23 24 26 24 25 26 28 30 30
60 50 52 47 36 32 28 25 28 28 27 27 22 28 23 26 19 15 14 21 24 24 22 23 24 26 25 25 27 27 27 24 22 23 24 25 26 23 23 26 28 29 29 30
57 51 49 47 41 30 32 25 21 23 25 27 27 28 27 23 23 19 21 23 22 21 23 24 25 27 25 22 14 16 19 21 24 25 26 26 22 23 26 27 27 28 29 28
40 46 49 35 35 28 30 24 25 28 24 26 20 30 37 31 21 21 21 24 21 21 21 23 25 25 25 25 22 19 19 23 25 26 24 20 23 25 25 25 26 26 26 28
37 32 32 26 24 27 30 28 27 30 26 22 22 23 23 28 26 20 21 25 23 22 21 22 21 21 22 23 22 22 23 25 25 24 21 23 24 24 24 24 23 24 26 29
23 22 25 24 22 21 21 23 26 23 20 17 22 15 18 21 24 21 26 27 25 25 23 22 21 20 21 22 22 25 27 27 24 22 24 24 24 23 23 23 24 25 26 29
26 19 21 22 20 20 19 18 20 22 21 18 18 10 14 21 20 22 25 24 24 26 22 22 21 21 22 24 26 27 24 20 22 23 23 23 23 23 23 25 26 27 29 32
39 32 23 23 21 17 18 18 21 22 23 16 23 12 16 22 21 25 30 26 28 27 24 24 25 25 25 25 24 19 20 21 22 23 23 23 23 24 26 27 29 30 31 31
48 46 34 26 20 15 14 17 19 22 19 20 20 14 18 20 18 23 25 25 28 27 28 28 27 25 23 21 18 18 20 22 23 22 22 23 25 26 28 29 30 30 31 32
36 36 30 31 24 16 11 14 17 18 16 18 7 15 18 19 16 23 27 28 29 31 31 29 23 15 12 14 17 19 21 22 22 23 24 25 26 27 29 29 30 30 32 33
17 18 19 25 25 20 14 12 13 12 13 10 13 11 15 16 22 29 31 30 33 29 28 20 14 10 12 15 18 21 21 21 22 24 25 27 27 28 28 29 31 32 33 34
17 1 13 22 24 19 13 12 10 10 8 8 12 11 20 25 31 32 31 29 25 15 9 9 7 11 14 16 18 20 20 22 24 25 26 27 28 28 29 31 32 33 34 34
20 11 15 15 18 16 13 10 10 13 4 8 14 25 29 30 30 24 18 12 9 5 2 6 10 13 14 16 18 20 22 24 26 27 27 28 29 30 31 32 32 33 33 31
24 24 24 23 25 20 14 13 12 9 16 26 28 25 22 19 16 15 13 8 5 4 6 10 12 14 17 19 22 24 25 26 27 28 28 29 30 31 31 32 32 32 31 29
33 31 30 30 27 28 26 28 27 29 27 25 23 20 18 15 13 10 7 3 4 7 11 14 16 18 20 22 24 25 25 26 26 27 27 28 29 30 31 32 31 30 29 28
36 38 37 37 37 33 31 28 27 27 24 22 19 16 12 10 7 3 3 6 9 12 15 18 20 21 22 24 24 25 24 25 25 27 28 28 29 30 30 29 29 28 29 29
32 32 32 32 32 30 28 24 21 18 15 11 8 5 3 1 3 6 9 12 15 18 20 21 21 21 21 21 22 22 23 24 26 27 27 27 27 27 27 27 27 27 28 28
Wind_Direction
266 265 269 272 275 276 275 277 260 279 284 294 312 320 321 322 321 296 256 266 261 231 231 225 225 211 211 205 196 204 207 202 215 214 215 206 213 212 220 214 197 223 236 248
274 279 281 281 276 275 272 274 275 279 284 293 306 316 316 318 323 297 256 266 258 225 229 224 236 246 248 200 214 211 211 214 212 211 201 210 219 197 186 184 211 225 239 253
278 285 290 287 275 276 280 279 276 275 294 302 302 307 308 311 307 303 278 266 247 224 221 225 224 237 250 218 208 207 202 202 199 198 214 207 195 180 182 205 223 237 258 276
262 277 273 271 282 270 266 272 286 292 301 303 301 298 295 283 295 288 292 270 240 218 224 226 232 213 207 221 203 204 210 213 205 198 202 193 177 188 201 218 241 262 274 287
240 244 258 264 260 291 274 274 289 285 284 294 295 291 307 308 286 268 277 269 230 214 214 217 202 205 202 210 215 207 223 203 184 177 174 181 194 204 220 241 259 271 284 287
244 252 256 287 191 35 325 270 240 284 310 309 315 312 278 308 293 264 258 249 248 220 212 201 198 202 211 214 215 239 212 192 179 180 185 197 208 223 242 258 277 289 289 288
254 254 255 258 258 255 277 298 279 303 309 315 310 311 293 278 307 268 243 249 225 237 220 200 196 204 210 206 211 202 190 183 190 194 198 209 225 241 256 275 286 289 288 291
292 288 271 260 292 323 276 288 288 275 299 300 292 294 282 238 272 267 245 240 228 209 217 204 199 204 209 211 208 200 197 197 200 208 219 233 245 258 276 286 290 290 290 291
275 270 264 266 296 291 301 313 308 276 267 291 286 286 274 227 228 255 242 227 224 214 206 200 204 211 211 205 203 199 199 204 213 224 232 243 261 273 282 286 285 284 286 289
283 281 279 271 271 284 301 296 301 299 291 281 281 284 259 232 211 242 240 219 214 212 206 204 202 205 205 208 204 204 209 215 223 233 245 254 266 275 279 281 282 286 291 294
276 277 278 277 277 284 291 296 294 298 289 283 277 274 262 220 200 215 233 232 207 211 209 202 205 204 209 207 211 216 222 230 235 245 253 265 274 281 283 285 288 291 292 295
273 286 284 288 289 283 279 278 285 289 287 281 273 261 267 221 211 206 232 225 212 205 205 204 200 206 211 219 225 232 238 238 240 250 261 269 275 281 284 285 289 291 295 299
282 294 290 286 286 280 276 277 274 280 280 283 259 266 268 238 216 211 219 212 209 210 206 208 206 211 218 223 230 249 237 243 253 261 268 276 284 283 285 289 293 297 301 301
295 285 280 280 281 283 281 266 262 267 273 278 267 245 252 239 208 200 204 209 199 210 211 216 210 217 228 236 240 247 253 255 260 269 279 281 279 284 289 292 295 298 299 301
301 293 292 297 276 268 271 264 252 253 262 270 252 243 225 231 214 191 196 201 197 211 210 217 213 218 227 239 248 252 257 262 270 277 277 278 282 286 288 290 293 295 298 300
300 295 296 292 276 264 256 251 252 250 252 255 249 262 217 215 203 192 200 206 201 206 206 209 211 218 228 239 247 253 257 265 271 272 276 281 284 285 286 289 292 295 299 301
294 294 293 290 269 259 246 242 250 250 237 241 242 277 215 203 207 202 205 206 203 210 213 214 216 224 230 238 245 250 262 267 270 275 280 283 283 286 289 292 297 301 302 303
291 287 295 286 279 256 238 236 241 241 233 227 250 274 222 199 215 229 213 204 212 210 211 217 216 222 233 240 249 257 265 271 278 283 285 286 287 289 292 295 297 299 300 301
280 276 270 268 265 270 249 226 222 232 227 214 233 272 225 200 210 221 205 209 214 213 212 212 216 223 236 251 259 262 268 276 280 282 283 284 286 288 291 293 296 298 301 303
283 275 261 241 236 251 253 249 228 223 229 212 222 256 207 196 213 212 205 205 201 203 208 215 224 235 248 258 264 271 277 281 284 284 283 284 287 291 293 296 299 301 303 305
303 264 228 210 214 227 235 258 248 212 230 198 226 250 204 199 202 197 197 202 201 205 216 224 238 247 257 267 274 278 281 283 285 286 287 289 291 292 294 297 300 302 303 304
7 83 193 190 199 205 221 240 251 216 214 192 238 190 184 182 183 190 198 199 202 207 218 237 250 261 270 276 278 281 286 288 288 289 290 291 292 293 295 297 299 300 302 303
38 84 105 140 175 192 195 226 215 210 227 200 172 166 176 183 186 187 182 171 162 146 202 255 265 272 278 282 289 292 293 293 293 292 292 292 291 292 294 296 298 299 301 302
72 88 105 120 131 140 163 163 154 170 159 158 159 150 154 164 160 137 124 127 151 197 250 265 274 285 290 292 292 293 293 292 292 291 290 290 291 292 295 297 299 301 302 302
72 84 97 106 106 108 118 126 135 135 130 129 127 123 116 116 114 105 108 144 244 263 271 280 286 288 290 293 294 294 295 293 292 290 290 291 293 296 299 300 301 301 300 300
74 78 83 88 93 97 98 103 106 99 95 93 93 96 108 109 115 144 221 254 271 281 287 292 294 297 299 298 296 295 293 292 292 294 295 296 298 299 300 300 301 300 300 300
47 53 60 68 73 73 74 73 72 78 85 96 104 101 100 143 263 281 291 292 294 298 299 300 301 300 298 296 295 295 296 297 297 297 298 300 301 300 300 299 299 298 298 297